Regional Weather Roundup
Issued by NWS Cleveland, OH

Home | Current Version | Previous Version | Text Only | Print | Product List | Glossary On
Versions: 1 2 3 4 5 6 7 8 9 10 11 12 13 14 15 16 17 18 19 20 21 22 23 24 25 26 27 28 29 30 31 32 33 34 35 36 37 38 39 40 41 42 43 44 45 46 47 48 49 50
000
ASUS41 KCLE 281510
RWRCLE
OHIO REGIONAL WEATHER ROUNDUP
NATIONAL WEATHER SERVICE WILMINGTON, OH
1100 AM EDT THU AUG 28 2014

NOTE: "FAIR" INDICATES FEW OR NO CLOUDS BELOW 12,000 FEET WITH NO
SIGNIFICANT WEATHER AND/OR OBSTRUCTIONS TO VISIBILITY.

OHZ001>008-015>018-024>027-034-035-043-044-281600-
   NORTHWEST OHIO

CITY           SKY/WX    TMP DP  RH WIND       PRES   REMARKS
DEFIANCE       SUNNY     69  59  70 E7        30.16R
FINDLAY        PTSUNNY   72  61  68 NE8       30.14F
TOLEDO EXPRESS CLOUDY    69  57  65 NE8       30.16S
TOLEDO METCALF PTSUNNY   69  56  62 E8        30.17R
LIMA           PTSUNNY   72  62  71 E6        30.15R
$$

OHZ009>014-019>023-028>033-038-089-281600-
   NORTHEAST OHIO

CITY           SKY/WX    TMP DP  RH WIND       PRES   REMARKS
CLE-HOPKINS    CLOUDY    67  56  67 NE9       30.18R
CLE-LAKEFRONT  PTSUNNY   67  55  65 N10       30.16R
CUY CO. ARPT   PTSUNNY   66  57  72 N12       30.16S
LORAIN-ELYRIA  PTSUNNY   72  58  61 NE6       30.17R
ASHTABULA      MOSUNNY   64  51  62 N9G18     30.16S
AKRON-CANTON   PTSUNNY   68  54  60 N12       30.16R
WOOSTER        CLOUDY    67  56  67 NE7       30.17S
MANSFIELD      PTSUNNY   68  57  68 N6        30.17R
YOUNGSTOWN     PTSUNNY   66  53  63 N12       30.16R
$$

OHZ042-051>053-060>062-070>072-077>081-281600-
  SOUTHWEST OHIO

CITY           SKY/WX    TMP DP  RH WIND       PRES   REMARKS
CINC-COVINGTON MOSUNNY   77  61  57 NE8       30.10F
CINC-LUNKEN    SUNNY     77  64  64 NE7       30.10F
HAMILTON       SUNNY     76  63  64 E9        30.12S
DAYTON         MOSUNNY   74  61  63 E10       30.14S
WRIGHT-PAT AFB SUNNY     74  62  66 E10       30.13S
DAYTON GENERAL SUNNY     73  62  68 E5        30.12S
WILMINGTON     SUNNY     71  60  68 E8        30.13R
$$

OHZ036-037-039>041-045>050-054>059-063>069-073>076-082>088-281600-
  CENTRAL AND SOUTHEAST OHIO

CITY           SKY/WX    TMP DP  RH WIND       PRES   REMARKS
COLUMBUS       MOSUNNY   73  55  53 E9        30.14R
OSU AIRPORT    SUNNY     72  57  59 NE6       30.14S
BOLTON FIELD   SUNNY     72  61  68 MISG      30.15R
RICKENBACK AFB SUNNY     73  53  49 NE8       30.14R
NEWARK         SUNNY     71  56  58 VRB5      30.15R
MARION         PTSUNNY   69  59  70 E7        30.16R
LANCASTER      SUNNY     72  58  61 NE6       30.15R
ZANESVILLE     MOSUNNY   69  55  60 NE5       30.15R
NEW PHILLY     MOSUNNY   68  57  68 VRB5      30.16R
$$



USA.gov is the U.S. government's official web portal to all federal, state and local government web resources and services.